カタログに戻る

SATCOM 3 DEB

運用中HEO
NORAD 38687·DEBRIS·🇺🇸 United States

打ち上げ Dec 7, 1979 から Cape Canaveral Space Force Station

Loading…

次のパス (今後24時間)

TLE

最新Source: Space-Track

元期: Sep 13, 2026, 19:29 UTC

1 38687U 79101W   26256.81185813 -.00000080  00000-0  00000-0 0  9995
2 38687   7.5568 175.4468 4752516 289.3233  26.4163  1.80355618124499

AllMySatでSATCOM 3 DEBをリアルタイム追跡

Download on the App Store